Location: Chervonnoye
(48.6000°N, 34.4000°E)
Time: 15:06:54
(UTC+00:00)

Cosmos 405 Rocket - Pass Details

Date: 23 November 2020
Orbit: 489 x 554 km, 81.3° (Epoch: 27 January)

Event Time Altitude Azimuth Distance (km) Brightness Sun altitude
Rises 15:11:17 0° 345° (NNW) 2,649 6.3 -12.4°
Reaches altitude 10° 15:13:25 10° 343° (NNW) 1,768 5.4 -12.8°
Maximum altitude 15:17:15 64° 262° (W) 590 3.2 -13.4°
Drops below altitude 10° 15:21:10 10° 180° (S) 1,791 5.6 -14.0°
Sets 15:23:20 0° 178° (S) 2,687 6.5 -14.3°
